Date String (YYYY-MM-DD hh:mm:ss) UTC,Instrument flags,Ambient pressure (hPa),Sample flow (lpm),Bypass flow (lpm),Sample temperature (°C),Ambient temperature (°C),ASC tube jacket temperature (°C),LED temperature (°C),Box temperature (°C),Sample RH (%),Span deviation,Mass concentration (μg/m³),Mass concentration (μg/m³),Mass concentration (μg/m³)
DateTimeUTC,F1_M11,P_M11,Q1_M11,Q2_M11,T1_M11,T2_M11,T3_M11,T4_M11,T5_M11,U1_M11,ZSPAN_M11,X0_M11,X2_M11,X1_M11
2021-09-12 02:00:00,,0828.9,5.00,0.00,28.9,25.5,00.0,38.1,30.3,22.6,0001.7,0015.76,0007.36,0005.98
2021-09-12 02:01:00,,0828.9,5.00,0.00,28.9,26.0,00.0,38.1,30.4,22.5,0001.2,0015.80,0007.34,0005.99
2021-09-12 02:02:00,,0828.9,5.00,0.00,28.9,26.4,00.0,38.0,30.5,22.6,0001.2,0015.74,0007.32,0006.01
2021-09-12 02:03:00,,0829.0,5.01,0.00,28.9,26.9,00.0,38.0,30.6,22.6,0000.4,0015.94,0007.40,0006.03
2021-09-12 02:04:00,,0829.0,5.01,0.00,28.9,27.3,00.0,38.0,30.7,22.4,0000.3,0016.03,0007.43,0006.03
2021-09-12 02:05:00,,0829.0,5.00,0.00,29.0,27.6,00.0,38.0,30.8,22.3,0000.2,0016.65,0007.44,0006.03
2021-09-12 02:06:00,,0829.0,5.00,0.00,29.0,27.9,00.0,38.0,30.9,22.2,0000.4,0016.95,0007.45,0006.02
2021-09-12 02:07:00,,0829.1,4.99,0.00,29.1,28.1,00.0,38.0,31.0,21.8,0000.6,0016.56,0007.42,0006.02
2021-09-12 02:08:00,,0829.0,5.01,0.00,29.2,28.3,00.0,38.1,31.1,21.5,0000.9,0017.19,0007.43,0006.03
2021-09-12 02:09:00,,0829.0,5.00,0.00,29.2,28.4,00.0,38.1,31.1,21.3,0001.0,0017.80,0007.41,0006.03
2021-09-12 02:10:00,,0829.0,5.01,0.00,29.3,28.4,00.0,38.1,31.1,21.1,0001.0,0017.95,0007.42,0006.03
2021-09-12 02:11:00,,0829.1,5.00,0.00,29.2,26.8,00.0,38.1,30.7,21.0,0001.6,0017.16,0007.40,0006.05
2021-09-12 02:12:00,,0829.0,5.01,0.00,29.0,25.4,00.0,38.1,30.3,21.2,0001.9,0016.80,0007.41,0006.07
2021-09-12 02:13:00,,0829.1,4.99,0.00,28.9,25.6,00.0,38.1,30.4,21.4,0002.1,0017.09,0007.43,0006.09
2021-09-12 02:14:00,,0829.0,5.00,0.00,28.9,26.1,00.0,38.1,30.4,21.4,0002.5,0016.99,0007.40,0006.13
2021-09-12 02:15:00,,0829.1,5.00,0.00,28.9,26.5,00.0,38.0,30.6,21.4,0002.8,0016.91,0007.41,0006.18
2021-09-12 02:16:00,,0829.2,4.99,0.00,28.9,27.0,00.0,38.0,30.7,21.6,0002.8,0016.27,0007.45,0006.23
2021-09-12 02:17:00,,0829.2,5.01,0.00,28.9,27.4,00.0,38.0,30.8,21.4,0002.7,0015.56,0007.48,0006.26
2021-09-12 02:18:00,,0829.3,4.99,0.00,29.0,27.7,00.0,38.0,30.9,21.3,0002.5,0015.61,0007.52,0006.29
2021-09-12 02:19:00,,0829.2,5.01,0.00,29.1,27.9,00.0,38.0,30.9,21.1,0002.5,0016.36,0007.57,0006.33
2021-09-12 02:20:00,,0829.3,5.01,0.00,29.1,28.1,00.0,38.1,31.0,21.2,0002.6,0017.13,0007.60,0006.36
2021-09-12 02:21:00,,0829.4,4.99,0.00,29.2,28.3,00.0,38.1,31.1,21.2,0002.4,0017.34,0007.65,0006.39
2021-09-12 02:22:00,,0829.5,5.00,0.00,29.2,28.5,00.0,38.1,31.2,21.2,0002.2,0017.32,0007.71,0006.42
2021-09-12 02:23:00,,0829.5,5.01,0.00,29.3,28.6,00.0,38.2,31.2,21.2,0002.3,0017.52,0007.76,0006.45
2021-09-12 02:24:00,,0829.7,4.99,0.00,29.3,27.5,00.0,38.2,30.9,21.3,0002.1,0017.72,0007.87,0006.48
2021-09-12 02:25:00,,0829.7,5.00,0.00,29.1,25.6,00.0,38.2,30.4,21.5,0001.8,0018.12,0007.92,0006.50
2021-09-12 02:26:00,,0829.8,5.00,0.00,29.0,25.5,00.0,38.1,30.4,21.9,0001.9,0018.84,0007.93,0006.50
2021-09-12 02:27:00,,0829.9,5.01,0.00,28.9,25.9,00.0,38.1,30.5,22.3,0002.0,0019.35,0007.93,0006.49
2021-09-12 02:28:00,,0829.9,5.00,0.00,28.9,26.4,00.0,38.1,30.6,22.6,0002.2,0020.75,0007.96,0006.49
2021-09-12 02:29:00,,0829.8,4.99,0.00,28.9,26.8,00.0,38.1,30.7,22.8,0002.2,0020.64,0007.99,0006.49
2021-09-12 02:30:00,,0829.9,5.01,0.00,29.0,27.2,00.0,38.1,30.8,22.9,0002.0,0020.11,0007.98,0006.46
2021-09-12 02:31:00,,0829.9,4.99,0.00,29.0,27.5,00.0,38.1,30.9,22.9,0002.0,0019.39,0008.01,0006.44
2021-09-12 02:32:00,,0829.8,4.99,0.00,29.1,27.8,00.0,38.1,31.0,23.0,0002.3,0019.12,0008.01,0006.46
2021-09-12 02:33:00,,0829.8,5.00,0.00,29.1,28.0,00.0,38.1,31.0,23.0,0002.4,0019.75,0008.05,0006.47
2021-09-12 02:34:00,,0830.0,5.00,0.00,29.2,28.2,00.0,38.1,31.1,22.7,0002.2,0020.51,0008.06,0006.47
2021-09-12 02:35:00,,0830.1,4.99,0.00,29.2,28.4,00.0,38.1,31.2,22.8,0002.0,0020.87,0008.01,0006.44
2021-09-12 02:36:00,,0830.1,5.01,0.00,29.3,28.5,00.0,38.2,31.2,22.7,0002.1,0021.57,0007.99,0006.43
2021-09-12 02:37:00,,0830.1,5.01,0.00,29.3,28.6,00.0,38.2,31.3,22.6,0001.4,0021.12,0008.03,0006.42
2021-09-12 02:38:00,,0830.2,5.00,0.00,29.4,28.7,00.0,38.2,31.3,22.4,0001.3,0021.90,0008.10,0006.44
2021-09-12 02:39:00,,0830.2,4.99,0.00,29.4,27.4,00.0,38.2,31.0,22.3,0001.2,0020.89,0008.12,0006.49
2021-09-12 02:40:00,,0830.2,5.00,0.00,29.2,25.7,00.0,38.2,30.5,22.5,0001.4,0020.85,0008.17,0006.53
2021-09-12 02:41:00,,0830.1,5.00,0.00,29.1,25.5,00.0,38.2,30.5,22.6,0001.4,0021.03,0008.21,0006.56
2021-09-12 02:42:00,,0830.2,5.01,0.00,29.0,26.0,00.0,38.2,30.5,22.9,0001.4,0021.06,0008.29,0006.58
2021-09-12 02:43:00,,0830.2,5.00,0.00,29.0,26.5,00.0,38.2,30.6,23.0,0001.0,0020.65,0008.34,0006.58
2021-09-12 02:44:00,,0830.2,4.99,0.00,29.0,26.9,00.0,38.1,30.8,22.9,0000.8,0021.03,0008.32,0006.56
2021-09-12 02:45:00,,0830.3,5.00,0.00,29.0,27.3,00.0,38.1,30.9,22.9,0000.7,0020.78,0008.29,0006.53
2021-09-12 02:46:00,,0830.2,5.01,0.00,29.1,27.6,00.0,38.1,30.9,22.9,0000.7,0020.66,0008.29,0006.51
2021-09-12 02:47:00,,0830.2,4.99,0.00,29.1,27.9,00.0,38.1,31.0,23.0,0000.6,0020.49,0008.31,0006.48
2021-09-12 02:48:00,,0830.3,5.01,0.00,29.2,28.1,00.0,38.2,31.1,22.9,0001.2,0021.16,0008.32,0006.48
2021-09-12 02:49:00,,0830.3,4.99,0.00,29.2,28.3,00.0,38.2,31.1,23.0,0001.4,0021.98,0008.37,0006.47
2021-09-12 02:50:00,,0830.4,5.01,0.00,29.3,28.4,00.0,38.2,31.2,22.9,0001.1,0022.89,0008.36,0006.42
2021-09-12 02:51:00,,0830.4,5.00,0.00,29.3,28.6,00.0,38.2,31.3,22.9,0001.1,0024.45,0008.30,0006.39
2021-09-12 02:52:00,,0830.4,4.99,0.00,29.4,28.7,00.0,38.3,31.3,22.9,0000.9,0024.58,0008.29,0006.36
2021-09-12 02:53:00,,0830.4,5.01,0.00,29.4,28.7,00.0,38.3,31.4,22.8,0000.9,0024.50,0008.25,0006.34
2021-09-12 02:54:00,,0830.4,5.00,0.00,29.4,27.3,00.0,38.3,31.0,22.8,0001.0,0024.24,0008.20,0006.29
2021-09-12 02:55:00,,0830.3,5.00,0.00,29.2,25.6,00.0,38.3,30.6,23.0,0001.1,0023.42,0008.13,0006.26
2021-09-12 02:56:00,,0830.3,5.00,0.00,29.1,25.6,00.0,38.3,30.5,23.2,0001.3,0023.73,0008.13,0006.25
2021-09-12 02:57:00,,0830.3,5.00,0.00,29.1,26.0,00.0,38.2,30.6,23.4,0001.7,0024.67,0008.13,0006.25
2021-09-12 02:58:00,,0830.4,5.00,0.00,29.0,26.5,00.0,38.2,30.7,23.5,0001.7,0024.89,0008.07,0006.23
2021-09-12 02:59:00,,0830.5,5.01,0.00,29.0,26.9,00.0,38.2,30.8,23.6,0001.5,0023.91,0008.02,0006.20
